CW0351 Weather Reports


time (UTC)temp
F
wind
direction
speed
knots
gust
knots
rain 1hr
in
rain 24hr
in
rain mn
in
humidity
%
barometer
mb
20260510180052 73 0 0.0 4.3 0.00 0.00 0.00 52 1013.5
20260510174553 73 219 0.9 8.7 0.00 0.00 0.00 54 1013.5
20260510173055 73 0 0.0 3.5 0.00 0.00 0.00 55 1013.5
20260510171554 73 200 0.9 6.1 0.00 0.00 0.00 55 1013.4
20260510170058 73 0 0.9 6.1 0.00 0.00 0.00 55 1013.4
20260510164558 73 261 1.7 6.1 0.00 0.00 0.00 55 1013.3
20260510163100 72 0 0.9 7.8 0.00 0.00 0.00 58 1013.3
20260510161608 72 0 0.0 7.0 0.00 0.00 0.00 59 1013.2
20260510154607 69 221 1.7 7.0 0.00 0.00 0.00 62 1013.4
20260510153103 68 0 0.0 3.5 0.00 0.00 0.00 69 1013.5
20260510151600 66 0 0.0 6.1 0.00 0.00 0.00 72 1013.5
20260510144554 63 207 0.0 3.5 0.00 0.00 0.00 86 1013.5
20260510143058 62 0 0.0 0.9 0.00 0.00 0.00 93 1013.6
20260510141556 60 0 0.9 5.2 0.00 0.00 0.00 97 1013.5
20260510140056 59 0 0.0 2.6 0.00 0.00 0.00 98 1013.6
20260510134606 57 0 0.0 0.9 0.00 0.00 0.00 98 1013.4
20260510133052 56 0 0.0 0.0 0.00 0.00 0.00 99 1013.4
20260510131554 55 0 0.0 0.0 0.00 0.00 0.00 98 1013.4
20260510130051 54 0 0.0 0.0 0.00 0.00 0.00 98 1013.5
20260510124558 54 0 0.0 0.0 0.00 0.00 0.00 98 1013.7
20260510123053 53 0 0.0 0.0 0.00 0.00 0.00 98 1013.4
20260510121554 53 0 0.0 0.0 0.00 0.00 0.00 98 1013.1
20260510120051 52 0 0.0 0.0 0.00 0.00 0.00 98 1012.9
20260510114556 52 0 0.0 0.9 0.00 0.00 0.00 98 1012.7
20260510113051 52 0 0.0 0.0 0.00 0.00 0.00 98 1012.5
20260510111549 51 0 0.0 0.0 0.00 0.00 0.00 98 1012.4
20260510110058 51 0 0.0 0.0 0.00 0.00 0.00 98 1012.4
20260510104601 51 0 0.0 0.0 0.00 0.00 0.00 98 1012.3
20260510103058 51 0 0.0 0.0 0.00 0.00 0.00 98 1012.1
20260510101603 51 0 0.0 0.0 0.00 0.00 0.00 98 1011.9
20260510100055 50 0 0.0 0.0 0.00 0.00 0.00 98 1012.0
20260510094553 50 0 0.0 0.0 0.00 0.00 0.00 98 1011.8
20260510093054 50 0 0.0 0.0 0.00 0.00 0.00 97 1011.7
20260510091557 51 0 0.0 0.0 0.00 0.00 0.00 98 1011.5
20260510090053 51 0 0.0 0.0 0.00 0.00 0.00 98 1011.6
20260510084552 51 0 0.0 0.0 0.00 0.00 0.00 97 1011.9
20260510083052 50 0 0.9 3.5 0.00 0.00 0.00 98 1011.9
20260510081556 50 0 0.0 0.0 0.00 0.00 0.00 98 1011.9
20260510080049 50 56 0.0 0.0 0.00 0.00 0.00 98 1011.7
20260510074553 49 0 0.0 0.0 0.00 0.00 0.00 98 1011.1
20260510073103 49 0 0.0 0.0 0.00 0.00 0.00 97 1011.1
20260510071559 50 0 0.0 0.0 0.00 0.00 0.00 97 1011.0
20260510070054 50 0 0.0 0.0 0.00 0.00 0.00 97 1011.3
20260510064555 51 0 0.0 0.0 0.00 0.00 0.00 98 1011.2
20260510063104 50 0 0.0 2.6 0.00 0.00 0.00 97 1011.0
20260510061602 50 0 0.9 3.5 0.00 0.00 0.00 97 1010.6
20260510060054 50 0 0.0 0.0 0.00 0.00 0.00 97 1010.8
20260510054601 50 0 0.0 1.7 0.00 0.00 0.00 97 1011.0
20260510053054 50 0 0.0 0.0 0.00 0.00 0.00 97 1011.0
20260510051551 50 0 0.0 0.0 0.00 0.00 0.00 97 1011.0
20260510050056 51 0 0.0 0.0 0.00 0.00 0.00 96 1011.1
20260510044553 51 0 0.0 0.0 0.00 0.00 0.00 96 1011.3
20260510043056 51 0 0.0 0.0 0.00 0.00 0.00 96 1011.3
20260510041617 51 0 0.0 0.0 0.00 0.00 0.00 96 1011.4
20260510040059 52 0 0.0 0.0 0.00 0.00 0.00 96 1011.4
20260510034558 52 0 0.0 0.0 0.00 0.00 0.00 96 1011.3
20260510033106 52 0 0.0 0.0 0.00 0.00 0.00 96 1011.1
20260510031555 52 0 0.0 0.0 0.00 0.00 0.00 96 1011.0
20260510030051 52 0 0.0 0.0 0.00 0.00 0.00 95 1011.0
20260510024608 51 0 0.0 0.0 0.00 0.00 0.00 95 1011.0
20260510023057 50 0 0.0 0.0 0.00 0.00 0.00 94 1010.8
20260510021552 51 0 0.0 0.0 0.00 0.00 0.00 94 1010.8
20260510020052 51 0 0.0 0.0 0.00 0.00 0.00 94 1010.7
20260510014612 51 0 0.0 0.0 0.00 0.00 0.00 93 1010.8
20260510013103 51 0 0.0 0.0 0.00 0.00 0.00 93 1010.8
20260510011556 51 0 0.0 0.0 0.00 0.00 0.00 92 1010.7
20260510010056 52 0 0.0 0.0 0.00 0.00 0.00 91 1010.5
20260510004600 52 0 0.0 0.0 0.00 0.00 0.00 91 1010.4
20260510003053 53 0 0.0 0.0 0.00 0.00 0.00 90 1010.4
20260510001551 54 0 0.0 0.0 0.00 0.00 0.00 90 1010.1
20260510000054 54 0 0.0 0.0 0.00 0.00 0.00 89 1010.2
20260509234554 55 0 0.0 0.0 0.00 0.00 0.00 88 1010.3
20260509233053 55 0 0.0 0.0 0.00 0.00 0.00 87 1010.4
20260509231606 56 0 0.0 0.0 0.00 0.00 0.00 87 1010.2
20260509230054 57 0 0.0 1.7 0.00 0.00 0.00 88 1010.2
20260509224555 57 0 0.0 0.0 0.00 0.00 0.00 88 1010.3
20260509223056 57 105 0.0 3.5 0.00 0.00 0.00 87 1010.3
20260509221550 58 0 0.0 3.5 0.00 0.00 0.00 86 1010.0
20260509220052 58 0 0.0 0.9 0.00 0.00 0.00 87 1010.1
20260509214553 58 0 0.0 2.6 0.00 0.00 0.00 87 1010.2
20260509213050 57 0 0.0 0.0 0.00 0.00 0.00 87 1010.1
20260509211600 58 0 0.0 0.0 0.00 0.00 0.00 89 1010.3
20260509210106 57 0 0.0 0.0 0.00 0.00 0.00 91 1010.2
20260509204558 56 0 0.0 0.0 0.00 0.00 0.00 91 1010.2
20260509203101 56 0 0.0 0.0 0.00 0.00 0.00 91 1010.1
20260509201553 56 0 0.0 0.0 0.00 0.00 0.00 90 1010.3
20260509200057 55 0 0.0 0.0 0.00 0.00 0.00 90 1010.4
20260509194603 56 0 0.0 0.9 0.00 0.00 0.00 90 1010.6
20260509193058 56 0 0.9 5.2 0.00 0.00 0.00 89 1010.9
20260509191557 56 0 0.0 2.6 0.00 0.00 0.00 89 1011.1
20260509190054 56 0 0.0 0.0 0.00 0.00 0.00 89 1011.4
20260509184551 56 0 0.0 0.0 0.00 0.00 0.00 89 1011.3
20260509183055 56 0 0.0 5.2 0.00 0.00 0.00 88 1011.4
20260509181549 57 0 0.0 0.0 0.00 0.00 0.00 87 1011.6